This is the latest recevied weather packets stored in our database for station/object AI9F. If no packets are shown the sender has not sent any weather packets the latest 10 day(s).
| Time | Temp. | Humidity | Pressure | Rain* | Wind** | Luminosity | Snow |
|---|---|---|---|---|---|---|---|
| 1778043046 | 7.78° C | 96% | 1011.2 hPa | 3.05 mm | - | 0 W/m² | - |
| 1778042744 | 7.78° C | 96% | 1011.4 hPa | 3.05 mm | - | 0 W/m² | - |
| 1778042441 | 7.78° C | 96% | 1011.7 hPa | 3.05 mm | - | 0 W/m² | - |
| 1778042138 | 7.78° C | 96% | 1011.5 hPa | 3.05 mm | - | 0 W/m² | - |
| 1778041836 | 7.78° C | 96% | 1011.6 hPa | 1.27 mm | - | 0 W/m² | - |
| 1778041535 | 7.78° C | 95% | 1011.5 hPa | 3.05 mm | - | 0 W/m² | - |
| 1778041233 | 7.78° C | 95% | 1011.2 hPa | 3.05 mm | - | 0 W/m² | - |
| 1778040931 | 7.78° C | 95% | 1010.7 hPa | 3.05 mm | - | 0 W/m² | - |
| 1778040627 | 7.78° C | 95% | 1010.9 hPa | 1.78 mm | - | 0 W/m² | - |
| 1778040325 | 7.78° C | 95% | 1010.9 hPa | 0 mm | - | 0 W/m² | - |
| 1778040021 | 7.78° C | 95% | 1011.5 hPa | 0 mm | - | 0 W/m² | - |
| 1778039718 | 7.78° C | 95% | 1011.1 hPa | 0 mm | - | 0 W/m² | - |
| 1778039415 | 8.33° C | 96% | 1010.7 hPa | 0 mm | - | 0 W/m² | - |
| 1778039112 | 8.33° C | 96% | 1010.8 hPa | 1.78 mm | - | 0 W/m² | - |
| 1778038809 | 8.33° C | 96% | 1011 hPa | 1.78 mm | - | 0 W/m² | - |
| 1778038507 | 8.33° C | 96% | 1011.3 hPa | 1.27 mm | - | 0 W/m² | - |
| 1778038203 | 8.33° C | 96% | 1011.1 hPa | 1.27 mm | - | 0 W/m² | - |
| 1778037901 | 8.33° C | 96% | 1011.2 hPa | 1.78 mm | - | 0 W/m² | - |
| 1778037597 | 8.33° C | 96% | 1011.4 hPa | 3.05 mm | - | 0 W/m² | - |
| 1778037295 | 8.89° C | 97% | 1011.5 hPa | 1.27 mm | - | 0 W/m² | - |
| 1778036992 | 8.89° C | 97% | 1011.3 hPa | 4.32 mm | - | 0 W/m² | - |
| 1778036690 | 8.89° C | 97% | 1010.9 hPa | 4.83 mm | - | 0 W/m² | - |
| 1778036386 | 8.89° C | 97% | 1010.9 hPa | 1.78 mm | - | 0 W/m² | - |
| 1778036083 | 8.89° C | 97% | 1011 hPa | 4.32 mm | - | 0 W/m² | - |
| 1778035780 | 8.89° C | 97% | 1010.7 hPa | 8.89 mm | - | 0 W/m² | - |
* Rain latest hour (hover to see other rain measurements)
** Current wind speed in m/s (hover to see current wind gust speed)